This is the latest recevied weather packets stored in our database for station/object F5OWB. If no packets are shown the sender has not sent any weather packets the latest 10 day(s).
| Time | Temp. | Humidity | Pressure | Rain* | Wind** | Luminosity | Snow |
|---|---|---|---|---|---|---|---|
| 1778246299 | 19.44° C | 51% | 1017.8 hPa | 0 mm | - | 729 W/m² | - |
| 1778246240 | 19.44° C | 50% | 1017.8 hPa | 0 mm | - | 731 W/m² | - |
| 1778246173 | 19.44° C | 50% | 1017.8 hPa | 0 mm | - | 733 W/m² | - |
| 1778246122 | 19.44° C | 50% | 1017.9 hPa | 0 mm | - | 733 W/m² | - |
| 1778246053 | 19.44° C | 51% | 1017.9 hPa | 0 mm | - | 735 W/m² | - |
| 1778245993 | 19.44° C | 50% | 1017.9 hPa | 0 mm | - | 737 W/m² | - |
| 1778245933 | 19.44° C | 51% | 1017.9 hPa | 0 mm | - | 737 W/m² | - |
| 1778245873 | 19.44° C | 53% | 1017.9 hPa | 0 mm | - | 738 W/m² | - |
| 1778245816 | 19.44° C | 50% | 1017.9 hPa | 0 mm | - | 742 W/m² | - |
| 1778245751 | 19.44° C | 52% | 1018 hPa | 0 mm | - | 742 W/m² | - |
| 1778245690 | 19.44° C | 53% | 1017.9 hPa | 0 mm | - | 744 W/m² | - |
| 1778245629 | 19.44° C | 51% | 1018 hPa | 0 mm | - | 742 W/m² | - |
| 1778245568 | 19.44° C | 51% | 1018 hPa | 0 mm | - | 745 W/m² | - |
| 1778245514 | 19.44° C | 51% | 1018 hPa | 0 mm | - | 747 W/m² | - |
| 1778245447 | 19.44° C | 53% | 1017.9 hPa | 0 mm | - | 747 W/m² | - |
| 1778245389 | 19.44° C | 49% | 1017.9 hPa | 0 mm | - | 749 W/m² | - |
| 1778245330 | 19.44° C | 54% | 1018 hPa | 0 mm | - | 751 W/m² | - |
| 1778245267 | 19.44° C | 53% | 1018 hPa | 0 mm | - | 751 W/m² | - |
| 1778245207 | 19.44° C | 54% | 1017.9 hPa | 0 mm | - | 752 W/m² | - |
| 1778245148 | 19.44° C | 54% | 1018 hPa | 0 mm | - | 752 W/m² | - |
| 1778245085 | 19.44° C | 52% | 1017.9 hPa | 0 mm | - | 756 W/m² | - |
| 1778245023 | 19.44° C | 51% | 1018 hPa | 0 mm | - | 752 W/m² | - |
| 1778244963 | 19.44° C | 52% | 1018 hPa | 0 mm | - | 756 W/m² | - |
| 1778244903 | 19.44° C | 50% | 1018 hPa | 0 mm | - | 758 W/m² | - |
| 1778244842 | 19.44° C | 53% | 1018 hPa | 0 mm | - | 758 W/m² | - |
* Rain latest hour (hover to see other rain measurements)
** Current wind speed in m/s (hover to see current wind gust speed)